www.pogodaiklimat.ru

Погода и климат >> Архив погоды >> Россия >> Карелия >> Сортавала


АРХИВ ПОГОДЫ в Сортавале

Время (UTC), дата Ветер
(напр.,м/с)
 
Видим.   Явления Облачность Т
(С)
Тd
(С)
f
(%)
Тe
(С)
Тes
(С)
Комфортность P
(гПа)
Po
(гПа)
Тmin
(С)
Tmax
(С)
R
(мм)
R24
(мм)
S
(см)
21 15.04 СЗ 1 50 км ясно +2.5 -4.3 61 +1 +1 1033.2 1030.8
00 16.04 СЗ 1 50 км ясно -0.4 -4.6 73 -2 -2 1033.5 1031.1
03 16.04 штиль 0 50 км ясно -2.6 -4.8 85 -4 -4 1034.2 1031.8 -2.7
06 16.04 штиль 0 50 км ясно +7.7 -2.8 47 +7 +13 1035.3 1033.0 -2.7 3
09 16.04 В 3 50 км ясно +8.6 -2.3 46 +7 +14 1036.1 1033.8
12 16.04 СВ 2 50 км ясно +10.7 -4.1 35 +10 +17 1035.8 1033.5
15 16.04 СВ 2 50 км 4/0
[Ci fib]
+11.1 -3.8 35 +10 +12 1034.8 1032.5
18 16.04 В 2 20 км 1/0
[Ci fib]
+4.8 -3.1 57 +3 +3 1035.6 1033.2 +11.6
21 16.04 С 1 50 км ясно -0.2 -3.5 78 -2 -2 1036.7 1034.3
00 17.04 штиль 0 50 км ясно -2.8 -4.6 87 -4 -4 1036.8 1034.4
03 17.04 штиль 0 23 км 3/0
[Ci fib]
-3.4 -5.0 89 -5 -4 1037.3 1034.8 -3.9
06 17.04 Ю 2 50 км 9/0
[Ci fib]
+3.3 -2.9 64 +1 +4 1036.3 1033.9 -3.9 1
09 17.04 В 2 50 км 9/0
[Ci fib]
+7.4 -1.8 52 +6 +13 1035.0 1032.6
12 17.04 Ю 2 50 км 9/0
[Ac As Ci fib]
+7.9 -1.1 53 +6 +11 1033.6 1031.3
15 17.04 ЮВ 1 50 км 9/0
[Cs]
+7.2 -1.2 55 +7 +9 1032.1 1029.8
18 17.04 штиль 0 20 км 4/0
[Ci fib]
+1.6 -2.4 75 +1 +1 1032.0 1029.6 +8.9
21 17.04 штиль 0 50 км 9/0
[Ac trans Ci fib]
+0.3 -2.3 83 -1 -1 1032.3 1029.9
00 18.04 штиль 0 50 км 9/0
[Ac trans Ci fib]
+0.2 -2.3 83 -1 -1 1032.6 1030.2
03 18.04 штиль 0 50 км 6/0
[Ci fib]
-1.2 -3.2 86 -2 -2 1033.3 1030.9 -1.4
06 18.04 В 2 50 км ясно +5.6 -4.3 49 +4 +8 1034.5 1032.1 -1.4 <0.5
09 18.04 ЮВ 1 50 км ясно +9.4 -3.5 40 +9 +20 опасность
простуды
1034.8 1032.5
12 18.04 ЮВ 1 50 км ясно +11.8 -4.2 32 +12 +21 1034.3 1032.0
15 18.04 Ю 3 50 км ясно +10.0 -3.5 38 +8 +10 1034.0 1031.7
18 18.04 штиль 0 50 км ясно +4.8 -3.5 55 +4 +4 1033.9 1031.5 +12.2
21 18.04 штиль 0 50 км ясно -0.4 -3.4 80 -1 -1 1033.6 1031.2
00 19.04 штиль 0 50 км 5/0
[Ci fib]
-2.1 -3.8 88 -3 -3 1033.0 1030.6
03 19.04 штиль 0 50 км 9/0
[Ci fib]
-1.9 -3.7 87 -3 -3 1031.4 1029.0 -2.3
06 19.04 В 1 50 км 9/0
[Ci sp]
+4.1 -1.5 67 +3 +7 1030.1 1027.7 -2.3 0
09 19.04 СЗ 3 50 км 9/0
[Ac trans Ci sp]
+12.4 -3.9 32 +11 +17 1029.2 1026.9
12 19.04 СЗ 5-11
{11}
50 км 9/0
[Ac trans Ci sp]
+11.6 -3.7 34 +10 +12 1028.7 1026.4
15 19.04 СЗ 5
{11}
50 км 9/0
[Ac trans Cs]
+10.3 -3.1 39 +8 +9 1028.2 1025.9
18 19.04 СЗ 2 50 км 9/0
[Ac trans Ci fib]
+6.9 -2.5 51 +5 +5 1028.5 1026.2 +13.4
21 19.04 СЗ 1 50 км 4/0
[Ci fib]
+3.8 -2.5 63 +3 +3 1029.1 1026.7
00 20.04 СЗ 2 50 км 5/0
[Ci fib]
+0.8 -3.7 72 -2 -2 1029.7 1027.3
03 20.04 СЗ 2 50 км 5/0
[Ac trans Ci fib]
-0.2 -4.5 73 -4 -4 1029.5 1027.1 -0.4
06 20.04 С 4 50 км 4/0
[Ac trans]
+6.0 -3.3 51 +3 +5 1029.4 1027.0 -0.4 0
09 20.04 СВ 4 50 км 4/1 1000 м
[Cu hum Ac trans Ci fib]
+8.9 -4.3 39 +7 +11 1028.9 1026.6
12 20.04 СВ 4 50 км 6/4 600 м
[Cu hum Ac trans Ci fib]
+9.7 -4.3 37 +8 +10 1028.6 1026.3
15 20.04 СВ 3 50 км 9/8 1260 м
[Sc Ac trans Ci fib]
+8.8 -4.5 39 +7 +7 1028.3 1026.0
18 20.04 Ю 3 50 км 3/0
[Ac trans]
+5.2 -3.0 55 +2 +2 1029.1 1026.7 +10.3
21 20.04 штиль 0 50 км ясно -0.5 -2.7 85 -2 -2 1029.8 1027.4
00 21.04 штиль 0 50 км ясно -2.4 -4.0 89 -4 -4 1029.5 1027.1
03 21.04 штиль 0 9000 м дымка 1/0
[Ci fib]
-3.7 -5.2 89 -5 -5 1029.8 1027.4 -3.8
06 21.04 Ю 2 50 км 3/0
[Ci fib]
+3.9 -0.6 72 +1 +5 1030.0 1027.6 -3.8 0
09 21.04 Ю 3 50 км 5/0
[Ci fib]
+6.9 -0.8 58 +4 +11 1029.5 1027.2
12 21.04 Ю 4 50 км 4/0
[Ci fib]
+6.9 -1.4 55 +4 +9 1028.3 1026.0
15 21.04 Ю 3 50 км 1/0
[Ci fib]
+5.7 -3.0 54 +3 +5 1027.0 1024.7
18 21.04 штиль 0 50 км 3/0
[Ac trans Ci fib]
+2.2 -3.4 66 +2 +2 1026.6 1024.2 +7.6
21 21.04 штиль 0 40 км 3/0
[Ci fib]
-1.3 -3.2 87 -2 -2 1025.8 1023.4
00 22.04 штиль 0 40 км 3/0
[Ci fib]
-1.0 -2.8 88 -2 -2 1026.0 1023.6
03 22.04 штиль 0 40 км 9/3 1000 м
[Sc Ac trans Ci fib]
-1.7 -3.4 88 -3 -3 1025.5 1023.1 -2.2
06 22.04 штиль 0 50 км 9/3 600 м
[Sc Ac trans Ci sp]
+5.3 0.0 69 +5 +7 1025.5 1023.2 -2.2 0
09 22.04 ЮЗ 2 50 км 9/4 600 м
[Sc Ac trans Ci sp]
+10.9 -0.4 46 +10 +13 1025.2 1022.9
12 22.04 З 2 50 км 9/4 600 м
[Cb cap Ac trans Ci sp]
+11.8 -0.2 44 +11 +14 1024.4 1022.1
15 22.04 З 1 50 км {ливн. осадки} 9/3 1000 м
[Sc Ac trans Ci sp]
+12.5 +0.8 45 +13 +14 1024.0 1021.7 0.0
18 22.04 штиль 0 50 км {ливн. осадки} 6/0
[Ac trans Ci fib]
+8.0 +0.9 61 +8 +8 1024.6 1022.3 +12.9 0.0

 

Местоположение метеостанции Сортавала (Карелия, Россия): широта 61.72 долгота 30.72 высота над уровнем моря 19 м.

В архиве по умолчанию представлена погода в Сортавале за последнюю неделю. Архивные данные за месяц целиком и за предыдущие месяцы, начиная с января 2011 года, Вы можете получить, выбрав интересующий диапазон дат из раскрывающегося списка и нажав кнопку "Ввод!".


*Определитесь, кто Вы:
робот инопланетянин человек

Внимание! Время в таблицах - всемирное. Для получения местного времени необходимо прибавить поправку, которая равна 3 ч.

Смотрите также архив погоды в соседних городах и на ближайших метеорологических станциях:

Погода на Валаам Острове (Карелия, Россия) (40 км)
Погода в Вяртсиле (Карелия, Россия) (51 км)
Погода в Тохмаярви (Финляндия) (61 км)
Погода в Париккала Коицанлахти (Финляндия) (74 км)
Погода в Лаукансаари (Финляндия) (74 км)
Погода в Суоярви (Карелия, Россия) (97 км)
Погода в Савонлинне (Финляндия) (97 км)
Погода в Липери Туискаванлуото (Финляндия) (107 км)
Погода в Йоэнсуу (Финляндия) (111 км)
Погода в Мекриярви (Финляндия) (118 км)

Пояснения к столбцам:

Ветер - указаны скорость ветра в м/с - средняя за 10 мин, порывы в срок и между сроками (в фигурных скобках) и направление, откуда дует ветер: С - северный, СВ - северо-восточный, В - восточный, ЮВ - юго-восточный, Ю - южный, ЮЗ - юго-западный, З - западный, СЗ - северо-западный.
Видимость - горизонтальная дальность видимости в метрах или километрах. При видимости от 1 до 10 км при отсутствии осадков обычно наблюдается дымка, при ухудшении видимости до 1 км и менее - туман. В сухую погоду видимость может ухудшаться дымом, пылью или мглою.
Явления - указаны атмосферные явления, наблюдавшиеся в срок или в последний час перед сроком; фигурными скобками обозначены явления, наблюдавшиеся между сроками (за 1-3 часа до срока); квадратными скобками обозначены град или гололедные отложения с указанием их диаметра в мм.
Облачность - указаны через наклонную черту общая и нижняя облачность в баллах и высота нижней границы облаков в метрах; квадратными скобками обозначены формы облаков: Ci - перистые, Cs - перисто-слоистые, Cc - перисто-кучевые, Ac - высококучевые, As - высокослоистые, Sc - слоисто-кучевые, Ns - слоисто-дождевые, Cu - кучевые, Cb - кучево-дождевые. Подробнее классификацию облаков см. в Атласе облаков (PDF).
T - Температура воздуха - температура, измеренная на высоте 2 м над землей.
Td - Температура точки росы - температура, при понижении до которой содержащийся в воздухе водяной пар достигнет насыщения.
f - Относительная влажность воздуха - влажноcть воздуха, измеренная на высоте 2 м над землей.
Te - Эффективная температура - температура, которую ощущает одетый по сезону человек в тени. Характеристика душности погоды. При расчете учитывается влияние влажности воздуха и скорости ветра на теплоощущения человека.
Tes - Эффективная температура на солнце - температура, которую ощущает человек, с поправкой на солнечный нагрев. Характеристика знойности погоды. Зависит от высоты солнца над горизонтом, облачности и скорости ветра. Ночью, в пасмурную погоду, а также при ветре 12 м/с и более поправка равна нулю.
P - Атмосферное давление - приведенное к уровню моря атмосферное давление.
Po - Атмосферное давление - измеренное на уровне метеостанции атмосферное давление.
Tmin - Минимальная температура - минимум температуры воздуха на высоте 2 м над землей.
Tmax - Максимальная температура - максимум температуры воздуха на высоте 2 м над землей.
R - Количество осадков - Количество выпавших осадков за период времени, мм. При наведении курсора мыши на число - период времени, за который выпало указанное количество осадков.
R24 - Количество осадков - Количество выпавших осадков за 24 часа, мм.
S - Снежный покров - Высота снежного покрова, см. При наведении курсора мыши на число - состояние снежного покрова и степень покрытия местности в баллах.